EST,Max TemperatureF,Mean TemperatureF,Min TemperatureF,Max Dew PointF,MeanDew PointF,Min DewpointF,Max Humidity, Mean Humidity, Min Humidity, Max Sea Level PressureIn, Mean Sea Level PressureIn, Min Sea Level PressureIn, Max VisibilityMiles, Mean VisibilityMiles, Min VisibilityMiles, Max Wind SpeedMPH, Mean Wind SpeedMPH, Max Gust SpeedMPH,PrecipitationIn, CloudCover, Events, WindDirDegrees
2013-2-1,18,13,8,13,8,0,88,75,62,30.31,30.12,29.88,10,6,0,21,11,26,0.00,7,Snow,267
2013-2-2,23,16,8,19,13,4,93,82,71,30.23,30.02,29.92,10,4,1,12,8,,0.01,8,Snow,235
2013-2-3,21,10,0,18,9,-4,87,78,62,30.03,29.93,29.83,10,7,0,17,6,25,0.00,7,Fog-Snow,276
2013-2-4,23,18,14,19,16,12,93,85,78,30.04,29.94,29.86,10,4,1,6,2,,0.02,8,Snow,143
2013-2-5,28,20,12,25,18,10,96,87,69,29.97,29.89,29.80,10,6,0,15,4,22,0.01,7,Fog-Snow,226
2013-2-6,28,16,5,22,13,2,92,71,56,30.33,30.21,30.00,10,10,7,14,7,21,0.00,2,Snow,297
2013-2-7,39,32,24,27,23,16,88,74,62,30.30,30.11,29.86,10,9,4,12,5,17,0.01,5,Rain,99
2013-2-8,30,24,18,28,23,14,93,83,63,30.37,29.97,29.76,10,5,1,23,12,33,0.24,7,Rain-Snow,3
2013-2-9,28,17,6,19,15,3,96,80,58,30.47,30.40,30.31,10,10,7,9,5,,0.00,0,,143
2013-2-10,41,30,19,37,26,18,96,80,60,30.28,30.02,29.68,10,9,7,10,5,,0.11,5,Rain,127
2013-2-11,44,38,30,42,30,24,97,76,64,29.90,29.69,29.57,10,10,5,31,15,41,0.01,8,Rain,244
2013-2-12,33,30,27,24,22,19,79,71,64,30.06,29.99,29.91,10,10,8,18,13,25,0.00,8,Snow,276
2013-2-13,37,32,26,25,22,19,88,73,55,29.94,29.83,29.75,10,9,5,8,5,,0.00,4,,234
2013-2-14,39,32,26,34,30,25,96,83,68,29.86,29.75,29.68,10,6,2,24,9,34,0.00,7,Snow,220
2013-2-15,33,28,19,27,16,10,80,62,45,30.14,30.04,29.88,10,10,10,14,11,22,0.00,7,,300
2013-2-16,26,19,12,19,15,7,93,79,48,30.12,30.03,29.96,10,5,1,20,5,22,0.00,7,Snow,304
2013-2-17,25,18,10,12,6,1,88,66,39,30.23,30.16,30.04,10,10,4,17,8,20,0.00,2,Snow,319
2013-2-18,46,31,16,35,20,7,71,60,45,30.22,29.95,29.61,10,10,10,18,8,24,0.00,3,,164
2013-2-19,43,30,17,40,22,10,93,81,68,29.96,29.69,29.42,10,5,0,29,19,39,0.18,8,Fog-Rain-Snow,250
2013-2-20,21,18,15,14,10,5,79,67,57,30.26,30.13,29.93,10,9,5,23,15,29,0.00,8,Snow,294
2013-2-21,26,24,21,17,14,11,82,71,60,30.39,30.33,30.27,10,10,9,12,8,16,0.00,6,,40
2013-2-22,33,27,21,32,25,17,100,90,74,30.27,29.97,29.88,10,4,0,16,10,25,0.11,8,Fog-Snow,130
2013-2-23,33,27,19,28,20,14,89,69,59,29.95,29.91,29.87,10,10,9,16,11,25,0.00,7,,249
2013-2-24,36,25,14,26,21,12,92,79,59,30.17,30.05,29.93,10,8,3,17,7,,0.00,6,Snow,267
2013-2-25,41,28,15,24,20,12,100,73,50,30.25,30.18,30.11,10,8,4,8,2,,0.00,1,,115
2013-2-26,34,30,27,32,29,19,96,85,64,30.11,29.69,29.49,10,4,0,20,12,31,0.82,6,Fog-Rain-Snow,77
2013-2-27,35,34,33,34,32,31,100,93,85,29.59,29.51,29.43,10,4,0,12,7,17,0.30,8,Fog-Snow,187
2013-2-28,37,34,30,32,29,24,96,84,70,29.97,29.74,29.55,10,8,2,18,9,25,0.00,8,Snow,347